Wind_Speed
38 38 38 38 39 39 39 38 37 37 35 33 33 33 33 33 32 32 31 31 31 31 32 32 32 32 31 31 31 31 31 32 33 33 34 34 34 34 35 37 38 40 41 42 42 42 43 44 44 44 43 43 43 44 45 45 46 46 42 34 28 23 20 17 13 8 7 16 27 38 45 48 49 49 48 46 44 44 48 53 58 62 67 73 77 82
39 38 38 38 39 40 40 38 37 37 36 35 35 35 35 35 34 33 31 30 30 30 30 31 31 31 30 30 30 30 30 31 32 32 33 34 34 34 35 36 38 39 41 42 43 43 44 45 45 45 45 44 43 44 44 44 45 46 44 39 32 27 24 20 17 13 6 9 24 37 46 49 51 50 50 48 46 45 49 54 59 63 68 73 76 81
39 39 39 39 39 39 39 38 37 37 37 37 36 36 36 36 35 33 32 31 29 29 29 29 30 30 30 30 29 29 30 30 31 31 32 33 34 34 35 36 37 38 40 42 43 44 45 46 46 46 46 45 44 44 44 44 44 45 45 43 37 31 26 23 20 16 9 7 22 37 46 49 50 51 51 49 48 48 50 55 60 64 68 72 75 79
39 39 39 39 39 39 39 38 37 37 37 37 37 36 36 36 35 34 32 31 30 29 28 28 29 29 30 30 30 30 29 30 30 30 31 32 33 34 35 35 36 37 39 41 43 45 46 47 48 48 47 46 45 44 44 44 44 45 45 45 42 37 32 29 25 19 11 10 21 34 47 49 50 51 51 51 50 51 53 57 60 64 69 74 76 78
38 39 40 40 40 39 38 38 37 37 37 37 37 37 36 36 35 34 33 32 31 30 29 29 29 29 29 30 30 30 30 30 30 30 31 31 32 33 34 34 35 36 38 40 42 45 47 48 49 49 48 47 46 45 45 45 45 45 45 45 45 43 40 38 33 23 13 15 23 33 46 48 49 51 51 52 52 53 55 58 60 63 68 74 77 78
38 39 39 40 40 40 39 38 38 38 38 38 37 37 37 37 36 36 35 34 33 32 32 31 30 30 29 29 29 30 30 30 31 31 31 31 31 32 33 33 34 35 36 38 41 44 47 48 49 49 48 48 47 46 45 45 45 45 44 44 45 45 45 43 38 27 16 17 25 33 40 44 47 48 49 50 51 53 55 57 59 62 67 73 77 78
38 38 39 40 40 40 39 39 39 40 40 40 38 37 37 37 38 38 38 37 36 35 34 33 32 30 29 29 28 29 29 30 31 31 31 31 31 31 32 32 33 34 35 37 40 43 46 48 49 48 48 47 46 46 45 44 44 45 45 45 44 44 45 44 40 30 19 19 26 32 37 41 42 43 46 47 47 48 51 54 57 61 66 71 76 77
39 39 39 40 41 41 41 41 41 42 42 42 41 40 39 39 39 40 40 39 39 38 37 35 33 32 30 29 28 28 29 30 30 31 31 31 31 31 31 32 32 32 33 35 38 42 45 48 49 48 47 46 46 45 45 44 44 44 45 45 44 44 44 43 40 32 23 20 25 30 34 37 39 41 43 44 43 44 47 51 55 59 64 70 75 77
39 39 40 41 42 44 44 43 43 43 43 44 44 43 43 42 41 41 41 41 40 39 39 37 36 33 31 30 29 28 28 29 30 30 31 31 31 31 31 31 31 31 32 34 36 40 44 47 48 48 47 46 46 45 45 44 43 43 44 45 45 44 44 43 40 35 28 22 23 27 29 33 37 41 44 44 43 43 44 48 52 56 62 68 73 75
38 40 41 42 43 45 47 47 45 45 45 45 45 45 45 45 44 43 42 41 40 40 39 39 38 35 33 30 29 28 28 28 29 30 30 31 31 31 31 31 31 31 31 32 34 38 42 46 48 48 47 46 45 45 44 43 42 42 43 44 44 44 44 44 42 38 32 26 22 22 24 29 36 42 47 46 45 44 45 46 49 54 59 65 71 73
39 41 43 44 45 46 48 49 48 47 47 47 47 46 45 45 45 45 44 42 41 40 39 39 38 36 34 32 29 28 28 27 28 28 29 30 31 31 31 31 30 30 30 31 32 35 39 43 46 47 46 45 44 44 44 43 42 41 42 43 43 43 43 43 43 40 35 30 25 21 20 26 35 43 48 48 47 46 46 46 48 52 57 63 68 72
40 42 44 46 47 48 48 49 49 49 48 48 48 47 45 44 43 44 44 43 42 41 40 39 38 36 35 33 31 28 27 26 27 27 28 28 29 30 30 30 30 29 29 30 31 32 36 40 44 46 46 45 44 44 43 43 42 41 41 41 42 42 42 43 43 42 37 32 28 24 21 25 33 41 47 48 47 46 46 47 48 51 55 61 66 69
41 43 45 46 47 48 48 48 48 48 47 47 47 47 46 44 42 42 43 43 42 41 41 40 38 36 34 33 31 29 27 25 25 25 26 27 28 28 29 29 29 29 29 29 29 30 33 37 41 44 45 45 44 43 43 42 42 41 40 40 41 41 42 43 43 43 40 35 31 27 23 25 33 40 44 46 46 46 47 48 49 51 55 59 64 67
41 42 44 45 46 47 47 47 47 47 47 46 45 45 45 44 43 42 43 42 41 41 40 40 39 37 35 33 32 30 27 25 23 23 24 24 25 26 27 28 29 28 28 28 28 29 30 33 38 42 44 44 44 43 43 42 41 40 40 39 39 40 41 42 43 43 42 38 33 29 25 24 33 40 43 45 45 46 47 48 50 52 55 59 64 67
40 41 43 45 46 46 46 46 46 46 45 45 44 44 44 43 43 42 42 42 41 40 40 39 38 37 35 34 32 31 29 27 24 23 22 22 23 24 25 27 28 28 28 28 28 28 29 31 34 38 42 43 43 43 43 42 41 40 39 38 38 38 40 42 43 43 42 39 35 32 29 25 32 41 46 47 47 47 48 49 50 52 55 58 63 67
38 41 43 45 45 44 43 43 43 44 43 43 43 43 43 42 42 41 41 41 41 40 40 40 39 38 35 33 32 31 31 29 27 25 24 22 22 22 24 25 26 27 27 27 27 27 27 29 32 35 39 42 43 43 43 43 42 41 39 38 37 37 38 40 42 43 42 40 37 35 33 28 30 38 47 49 49 48 49 49 50 52 55 58 62 66
38 40 41 42 42 41 40 40 41 41 41 41 41 41 41 41 41 41 41 41 40 40 40 40 40 40 37 34 32 31 31 31 29 27 26 24 22 22 23 24 26 27 27 27 27 26 27 27 29 32 36 39 42 43 43 43 43 42 40 38 37 36 37 39 42 43 43 41 39 37 36 34 30 34 45 49 50 49 49 50 51 52 54 57 61 64
37 37 38 38 38 38 38 38 38 39 39 40 40 40 40 40 40 40 40 40 40 41 41 40 40 40 39 37 34 31 30 31 30 28 27 25 23 22 22 24 25 26 27 27 26 26 26 26 27 30 33 36 39 41 43 43 43 43 41 39 37 36 37 39 41 43 43 42 40 39 39 37 32 33 41 46 48 48 49 50 51 53 55 57 60 62
34 34 35 35 35 36 36 36 36 37 38 38 39 39 40 39 39 39 39 39 40 40 41 41 40 39 39 37 34 31 30 30 29 28 27 26 23 22 22 23 24 26 27 27 26 25 25 26 26 27 30 33 37 40 42 43 43 43 42 41 39 37 37 38 41 43 44 44 42 41 41 40 36 33 37 43 46 46 47 49 50 53 55 57 59 61
33 32 32 33 34 34 34 34 35 36 37 38 39 39 39 39 39 39 39 39 39 40 40 41 41 40 38 36 33 30 29 29 29 29 28 26 24 22 21 22 24 25 26 26 26 25 25 25 25 26 27 30 34 38 41 43 43 43 43 42 40 39 38 38 40 43 45 45 44 43 42 42 40 37 36 40 43 44 46 47 49 52 55 57 60 61
32 31 31 31 32 33 34 34 35 35 36 37 38 39 39 39 39 39 38 38 39 39 39 40 40 39 37 36 33 30 28 28 29 29 28 26 23 21 20 21 23 25 26 26 25 25 25 25 24 24 25 28 31 35 39 42 43 44 43 42 41 40 39 39 40 43 46 47 46 45 43 42 42 40 39 40 42 44 45 47 49 51 54 57 59 61
31 31 30 31 31 32 33 34 35 35 36 37 38 38 39 39 39 38 38 38 38 38 38 39 39 38 36 35 32 30 28 27 28 28 28 26 23 21 19 21 23 24 25 25 25 25 25 24 24 23 24 26 29 33 37 41 43 44 44 43 42 41 39 39 40 43 46 48 48 48 46 43 42 42 42 43 44 45 46 47 49 51 53 56 59 61
29 30 30 31 31 32 33 34 34 35 35 36 37 38 38 38 38 37 37 37 37 37 38 38 37 36 35 33 31 29 27 27 27 27 27 27 24 21 19 20 22 23 24 24 24 24 24 24 23 23 23 24 27 31 35 39 42 44 44 43 42 41 40 40 41 43 46 49 50 50 48 44 43 43 44 45 46 46 47 49 50 51 53 56 59 61
29 30 31 31 32 32 33 34 34 35 35 36 37 37 38 38 37 37 37 36 37 37 38 38 37 36 34 33 31 29 27 26 26 26 27 26 25 22 20 20 21 22 22 23 23 24 24 24 23 22 23 23 25 28 32 37 40 43 44 44 43 42 41 40 41 43 47 50 52 52 50 46 44 44 45 46 47 48 49 50 51 52 53 56 59 61
30 30 31 31 32 32 33 33 34 35 35 36 37 37 37 38 38 37 37 37 37 38 38 38 37 36 34 33 31 28 26 25 25 25 26 26 24 22 20 20 20 21 21 22 22 23 23 23 22 22 22 22 24 26 30 34 38 41 43 43 43 43 42 41 42 44 48 51 53 54 52 48 45 45 46 47 47 48 50 51 52 53 54 56 59 61
30 30 31 31 31 32 32 33 33 34 35 36 36 37 38 38 38 38 38 37 38 38 38 38 37 36 34 32 30 28 25 24 24 24 25 25 24 22 20 19 20 21 21 21 21 22 22 22 22 22 21 22 23 25 27 31 35 38 40 42 43 43 43 42 43 45 48 52 55 55 53 50 47 46 46 46 47 48 50 52 53 53 54 56 59 61
29 30 30 30 31 31 32 32 33 34 35 35 36 37 37 38 39 38 38 38 38 38 38 38 37 35 33 31 29 27 25 23 23 23 24 24 23 22 20 19 20 20 20 20 20 21 21 22 21 21 21 21 22 23 26 28 32 35 37 40 41 42 43 43 43 45 49 53 56 57 55 52 48 46 46 45 45 47 50 52 53 53 54 56 59 61
29 29 29 30 30 31 32 32 33 34 35 35 36 37 37 37 38 38 37 37 37 37 37 36 36 34 32 30 28 26 24 22 22 23 23 23 23 21 20 19 19 20 20 20 19 19 20 20 21 21 21 21 21 22 24 27 29 32 34 36 38 40 42 43 44 46 49 53 57 58 57 54 50 47 45 44 44 45 49 51 52 52 54 56 58 61
28 28 29 29 30 31 32 32 33 34 34 35 35 36 36 36 36 36 36 36 36 36 35 35 34 33 31 30 27 25 23 22 22 22 23 22 22 21 20 19 19 19 19 19 19 18 18 19 20 21 21 21 21 22 23 25 28 30 32 34 35 37 40 41 43 46 49 53 56 58 58 55 52 48 45 43 42 44 47 50 51 52 53 55 58 61
28 29 29 29 30 31 31 32 32 33 33 34 34 34 34 34 35 35 35 35 35 35 34 34 33 31 30 29 27 25 22 21 21 22 22 22 21 20 19 19 18 18 18 18 18 17 17 18 19 20 20 20 21 21 22 24 26 28 30 32 33 35 37 40 43 46 49 52 55 57 57 56 53 49 46 43 42 43 46 48 50 51 52 54 57 60
29 29 29 29 30 30 31 31 31 32 32 32 32 33 33 33 33 34 34 34 34 34 34 33 32 31 30 29 28 25 23 21 20 21 22 22 21 20 19 18 17 17 17 17 17 16 16 16 18 19 20 20 20 21 22 23 25 27 29 30 31 33 35 38 41 44 48 52 54 55 55 54 52 49 46 44 42 42 45 48 49 51 52 54 56 58
29 29 29 29 29 30 30 30 30 31 31 31 31 31 32 32 32 33 33 34 34 34 33 33 32 31 29 28 27 26 23 21 20 21 22 22 21 20 19 18 17 16 16 16 16 16 15 14 16 18 19 20 20 20 21 22 24 26 28 29 30 31 32 35 38 42 46 49 52 53 54 53 51 49 46 44 42 42 44 47 49 51 52 54 55 57
29 28 29 29 29 29 29 30 30 30 30 31 31 31 31 32 32 33 33 34 34 34 34 33 32 31 30 28 27 25 23 21 20 21 21 22 21 20 19 18 17 16 15 15 15 15 15 14 15 16 18 19 19 19 20 21 22 24 26 28 30 30 31 33 35 39 43 47 50 52 53 52 51 49 47 45 43 41 42 45 48 50 52 53 55 56
28 28 28 28 28 29 29 29 29 30 30 30 31 31 32 32 32 33 33 34 34 34 34 33 33 32 31 29 27 25 23 21 20 21 22 22 21 20 19 18 17 16 15 15 14 14 14 14 14 15 17 18 18 19 19 20 21 23 25 27 29 30 30 31 33 35 39 43 47 50 52 52 51 50 49 47 44 43 43 45 47 49 51 52 53 55
28 28 28 28 28 28 29 29 29 29 30 30 31 31 31 32 32 33 33 34 34 34 34 33 33 32 31 30 28 26 24 21 21 21 21 22 21 20 19 17 16 15 15 14 14 14 13 13 14 15 16 17 18 18 18 19 20 22 24 26 28 30 30 31 31 33 36 40 44 48 51 52 52 52 51 49 46 45 45 47 49 49 50 50 51 52
28 27 28 28 28 28 28 28 29 29 29 30 30 30 31 31 32 32 32 33 33 33 33 33 32 31 31 30 29 27 25 23 21 21 21 21 21 20 19 17 15 15 15 14 14 13 13 13 13 14 15 16 17 17 18 18 20 21 23 25 28 30 31 31 31 32 34 37 41 46 49 52 53 53 53 51 49 47 47 50 52 52 52 50 50 50
27 27 27 28 28 28 28 28 29 29 29 29 29 30 30 30 31 31 31 32 32 32 32 32 31 30 29 29 28 27 26 24 22 21 21 21 21 20 18 16 15 14 14 14 13 13 13 13 13 13 15 16 16 17 18 18 19 20 22 24 27 29 30 31 31 32 33 36 39 43 47 50 52 54 54 53 51 49 49 52 54 55 54 53 51 50
27 27 27 28 28 28 28 28 28 28 28 29 29 29 29 29 30 30 31 31 31 32 32 32 31 30 29 28 27 26 26 24 23 22 21 20 20 19 18 16 14 13 13 13 13 13 13 13 13 13 14 15 16 17 18 18 18 19 21 23 25 27 29 30 31 32 33 35 38 40 43 46 49 52 53 53 52 51 51 52 54 55 54 53 52 52
27 27 27 27 28 28 28 28 28 28 28 28 28 28 29 29 29 30 30 31 31 32 32 32 32 31 30 28 27 26 25 24 23 22 21 20 19 18 17 15 14 12 12 13 13 13 12 12 12 13 14 15 16 17 18 18 18 19 20 22 24 26 27 29 30 31 32 34 36 38 40 43 46 49 51 53 53 53 52 52 53 53 53 52 52 53
26 26 27 27 28 28 28 28 28 28 28 28 28 28 28 29 29 29 30 30 31 31 32 32 32 32 31 29 28 26 25 24 24 23 22 20 19 17 16 15 13 12 11 12 12 12 12 12 12 13 14 15 16 17 18 18 18 18 19 21 22 24 26 28 29 30 31 33 35 36 38 41 43 45 48 50 53 54 54 54 54 53 52 51 51 51
26 26 27 27 28 28 28 28 28 28 28 28 27 28 28 28 29 29 29 30 30 31 32 32 32 32 31 30 28 27 25 24 24 23 22 21 19 17 16 14 13 11 10 11 11 11 11 12 12 12 13 15 16 17 18 18 18 18 19 20 22 23 25 27 28 29 30 32 34 36 37 39 41 43 45 48 50 53 55 56 56 55 54 53 52 51
26 26 27 27 28 28 28 28 28 28 28 27 27 27 28 28 29 29 29 30 30 31 31 32 32 32 31 30 29 27 25 24 23 23 22 21 20 18 16 14 12 10 9 9 9 10 10 11 11 12 13 15 16 17 18 18 18 19 19 20 21 22 24 26 27 28 29 31 33 35 36 38 39 41 43 45 48 51 54 55 57 57 56 55 54 53
25 26 27 27 28 28 28 28 28 28 28 27 27 27 27 28 28 28 29 29 30 30 31 31 32 32 32 31 30 28 26 24 23 22 22 22 21 19 17 14 12 10 8 7 7 8 8 10 10 11 13 15 16 17 17 18 19 19 19 19 20 21 23 25 26 28 29 30 32 33 35 37 39 40 42 43 45 48 51 54 57 58 59 58 56 55
25 26 27 27 28 28 29 29 29 28 28 27 27 27 27 27 28 28 28 29 29 30 30 31 31 32 32 31 31 29 27 25 23 22 22 22 21 20 18 15 13 11 9 7 6 7 7 8 9 10 12 14 15 16 17 18 19 19 19 19 20 21 22 24 26 27 29 30 31 33 34 36 38 39 40 41 43 45 49 53 57 59 60 60 59 58
25 26 27 27 28 29 29 29 29 29 28 27 27 27 27 27 27 28 28 28 29 29 30 30 31 31 31 31 31 30 28 26 24 22 22 22 22 21 19 17 14 12 10 8 7 6 7 7 8 9 11 13 14 15 16 17 18 19 20 20 20 21 22 23 24 26 28 29 31 32 34 35 36 37 38 39 41 43 47 51 55 59 61 62 62 60
25 26 27 28 28 29 29 29 29 29 28 28 27 27 27 27 27 27 28 28 28 29 29 29 30 30 30 30 30 30 29 27 25 23 21 20 21 21 20 18 16 14 12 11 9 7 7 8 8 9 10 11 12 14 15 16 18 19 20 20 21 21 21 22 23 25 27 29 30 32 33 34 35 36 37 39 41 43 45 49 53 57 60 62 63 63
25 26 27 28 28 29 29 29 29 29 28 28 27 27 27 27 27 27 28 28 28 29 29 29 29 29 29 29 29 29 29 28 26 24 22 20 19 20 20 20 18 16 14 13 11 9 9 8 9 9 10 10 11 12 14 16 17 19 20 21 21 21 21 22 23 25 26 28 29 31 32 33 34 36 37 39 40 42 43 46 49 53 57 61 63 64
25 26 27 28 28 29 29 29 29 29 29 28 27 27 26 26 27 27 28 28 28 28 29 28 28 28 28 28 28 28 28 28 27 25 23 21 19 19 19 19 19 18 17 15 13 11 10 10 9 10 10 10 11 11 13 15 17 19 20 21 22 22 22 22 23 24 25 27 28 29 31 33 34 36 37 38 39 40 41 43 46 50 54 58 61 63
25 26 27 28 28 29 29 29 30 29 29 29 28 27 26 26 26 27 27 28 28 28 29 28 28 28 27 26 26 27 27 27 27 26 24 22 20 19 19 19 19 19 18 17 15 13 11 11 10 10 10 10 11 12 13 15 17 19 20 21 22 22 22 22 23 23 24 26 27 29 30 32 34 35 36 36 37 39 40 42 45 48 51 55 59 61
25 26 27 28 28 29 29 30 30 30 29 29 28 28 27 27 26 27 27 28 28 28 28 28 28 28 27 26 25 25 26 26 26 26 25 23 21 20 19 19 19 19 19 17 16 14 13 11 10 10 10 11 12 13 14 15 17 19 21 22 22 23 23 23 23 24 24 25 26 28 29 31 32 33 34 35 37 38 40 41 43 46 49 53 56 58
25 26 27 28 28 29 29 30 30 30 30 29 29 28 27 27 27 27 27 27 28 28 28 28 28 27 27 26 25 25 25 25 25 25 25 24 22 21 19 19 19 18 18 18 17 16 14 13 11 10 10 11 12 13 15 16 18 19 21 22 23 23 23 23 24 24 25 25 26 27 28 29 30 31 33 34 36 37 38 40 42 44 46 49 52 55
Wind_Direction
312 313 314 315 316 317 317 318 318 317 316 316 316 317 317 316 315 314 313 312 310 308 306 303 300 297 294 292 290 289 288 287 287 286 285 283 279 276 272 270 268 268 267 266 266 265 266 268 270 270 269 268 266 265 264 261 256 250 246 243 236 224 216 217 222 215 153 127 135 147 159 168 174 177 180 182 184 190 199 205 208 210 212 214 217 218
314 314 315 316 317 317 318 318 319 319 319 319 319 319 318 317 315 314 313 311 310 308 306 304 301 298 295 293 290 288 286 286 285 285 284 283 280 277 273 270 268 266 265 264 263 263 264 266 269 271 272 271 269 266 265 264 259 254 249 244 237 228 224 227 234 241 233 141 139 147 157 167 173 176 178 180 182 187 195 201 205 208 210 213 215 217
315 316 316 317 317 318 318 319 320 321 321 321 320 319 318 316 315 313 313 312 311 309 308 307 305 302 299 295 292 289 286 284 284 283 283 282 280 277 274 271 268 266 263 262 261 260 261 264 267 269 271 271 270 268 266 265 261 256 251 247 241 234 229 233 244 252 246 168 152 157 162 168 173 177 179 180 182 187 194 201 204 207 209 211 214 216
316 317 318 318 318 318 318 319 321 322 322 321 320 318 317 315 314 313 313 313 313 313 313 312 310 307 303 299 295 291 287 284 282 281 281 280 279 277 275 272 269 266 263 260 259 258 260 263 266 268 269 270 270 269 268 265 262 257 253 249 245 241 237 242 251 257 241 183 161 165 172 172 174 178 181 183 185 191 197 202 205 207 208 210 213 215
317 318 318 319 318 318 319 321 322 323 323 321 320 319 317 316 315 314 313 313 315 316 317 317 315 312 308 303 298 293 289 285 282 280 279 278 277 276 274 272 269 266 263 260 257 257 258 261 264 266 268 269 269 269 268 266 262 258 254 251 248 246 245 249 255 256 233 185 169 171 177 174 174 178 181 185 190 195 200 203 206 207 209 211 213 215
318 319 319 319 319 319 321 323 324 325 324 322 321 320 319 318 317 316 316 317 317 318 319 319 317 315 311 306 301 295 290 286 282 280 278 277 276 275 274 272 269 266 262 259 256 255 256 259 262 264 266 268 268 268 267 265 262 258 254 252 250 249 250 252 255 255 234 191 177 177 178 175 174 175 180 185 192 197 202 204 206 208 209 211 213 215
319 319 319 319 320 321 323 325 326 326 325 324 323 322 321 320 320 320 320 319 319 318 318 318 317 316 313 310 304 298 292 287 283 280 277 276 275 274 273 271 269 265 262 258 255 254 255 257 260 263 264 265 265 266 265 264 261 258 254 252 252 252 252 253 255 254 237 198 183 182 182 179 175 173 177 184 190 195 200 203 206 208 209 211 213 215
319 320 321 322 323 324 325 326 326 327 326 326 325 324 324 323 322 322 320 319 318 317 317 316 316 316 315 313 309 303 296 290 285 281 277 276 275 274 273 271 269 266 261 257 254 252 253 256 259 261 262 262 263 263 263 262 261 257 254 252 252 252 252 253 254 252 239 206 187 183 182 179 176 175 178 183 188 192 197 201 204 206 208 210 212 215
321 322 323 325 326 326 326 326 327 327 327 326 326 326 325 324 323 321 319 318 317 316 316 315 315 315 315 314 311 306 300 293 288 283 279 276 275 274 273 272 270 266 262 257 253 251 251 253 257 260 261 262 262 262 262 261 259 257 254 252 252 252 252 251 251 249 241 221 198 186 180 175 176 179 184 187 189 192 195 198 202 204 207 209 212 214
324 325 326 327 328 327 326 326 327 328 327 326 325 324 323 322 321 319 317 316 316 316 315 315 314 314 314 314 312 308 303 296 290 285 281 278 276 275 274 273 271 267 263 258 254 251 250 252 255 259 261 262 262 261 261 260 259 256 253 252 251 251 251 250 249 247 244 235 218 198 183 174 176 182 189 192 193 194 195 197 199 202 205 208 211 214
327 328 328 328 327 327 326 325 326 326 325 324 322 321 320 319 318 316 315 314 314 315 314 314 313 313 314 314 313 309 304 298 291 286 282 279 277 276 275 274 273 270 265 260 256 252 251 251 253 256 260 262 262 261 260 260 258 256 253 251 250 250 250 248 247 245 242 241 233 215 192 175 174 181 190 195 196 197 197 197 199 201 204 207 210 213
330 329 328 326 325 325 324 323 323 322 321 319 318 317 316 316 315 314 313 313 313 314 314 313 313 313 314 315 314 311 306 299 293 287 283 279 277 276 276 276 274 272 268 263 258 255 252 251 252 254 258 260 261 260 258 258 257 254 252 250 249 249 248 247 245 243 241 243 240 228 205 179 173 179 189 194 197 198 199 199 200 202 204 206 209 212
329 327 325 323 321 320 319 318 317 316 316 315 314 314 314 314 314 313 312 312 313 314 314 313 313 314 315 316 315 313 309 302 295 289 284 281 278 277 277 276 275 273 270 265 261 257 254 252 252 253 255 258 259 258 256 256 255 253 251 249 248 247 246 245 244 242 241 243 243 237 217 188 178 181 189 193 196 198 199 201 202 203 205 207 209 212
324 321 318 316 315 314 313 312 312 312 313 314 314 314 314 313 313 312 312 312 313 314 314 314 314 315 316 317 316 315 313 308 300 292 286 282 280 278 277 276 275 274 271 268 264 260 256 254 252 252 253 255 257 257 256 255 254 252 250 249 247 246 245 244 242 241 241 242 244 242 229 200 186 187 193 196 197 198 200 201 203 204 206 208 210 212
318 314 311 310 309 310 310 311 311 312 314 315 315 314 314 313 313 312 312 312 313 315 315 315 315 315 316 318 318 318 317 314 308 300 292 286 282 280 277 276 275 273 272 269 265 261 258 255 253 251 252 253 255 255 255 255 253 251 250 248 247 245 244 242 241 240 239 240 242 243 236 213 193 191 197 199 200 200 201 201 203 204 207 208 210 213
314 311 308 308 309 311 312 312 313 313 315 316 316 315 314 313 313 313 313 314 315 316 317 318 317 316 316 317 318 319 319 317 313 307 301 292 287 283 279 276 274 272 271 269 266 263 259 256 253 251 251 252 253 253 254 254 253 251 249 247 246 245 243 241 239 237 236 237 239 240 237 223 201 191 194 199 201 202 202 202 202 204 206 208 211 213
312 309 308 309 311 313 315 315 315 316 317 317 317 316 315 314 314 314 314 315 316 318 319 319 319 318 317 317 317 318 317 316 313 308 303 297 292 287 281 278 274 271 270 269 267 264 260 257 254 251 250 250 251 252 252 251 250 249 248 246 245 244 242 239 237 235 233 233 233 234 233 227 210 191 189 194 199 201 202 202 202 203 205 208 210 213
311 311 311 312 313 315 316 317 318 319 320 319 319 318 317 316 316 315 316 316 317 318 319 319 319 318 318 317 317 317 316 314 311 307 302 297 293 288 284 279 274 271 269 268 267 265 262 258 254 251 249 249 249 250 250 250 249 247 245 244 244 243 241 239 236 233 231 230 229 228 227 224 214 197 188 191 195 199 201 202 202 203 205 207 210 213
312 314 314 314 315 316 318 320 322 322 322 322 321 320 319 318 318 317 317 317 317 317 318 318 318 318 317 316 316 317 316 313 309 306 302 297 293 289 286 279 274 270 269 268 268 266 263 259 255 251 249 248 248 248 248 249 248 247 245 243 242 242 241 238 235 231 228 227 226 224 221 218 213 204 193 192 195 197 199 201 202 203 204 206 209 212
313 315 315 315 316 317 320 324 325 326 325 324 323 322 321 320 320 319 318 318 317 317 317 317 317 317 317 316 316 317 316 313 309 305 301 297 293 290 287 280 273 269 268 268 268 267 265 260 256 251 248 247 246 246 246 247 247 246 245 243 242 241 240 238 234 230 227 225 224 222 218 212 209 206 201 200 199 200 200 201 202 203 204 206 208 212
313 315 316 316 317 319 323 326 328 328 327 326 325 324 323 322 321 320 319 318 318 317 317 317 316 316 317 317 318 318 317 313 309 306 302 298 294 291 287 280 273 269 267 267 267 267 265 261 257 252 248 246 244 244 244 244 245 245 244 243 242 241 240 239 235 230 226 223 222 221 218 211 206 204 204 205 205 204 203 203 203 203 204 205 208 211
313 315 316 318 319 322 325 328 329 329 329 327 326 324 324 323 322 321 320 319 318 318 317 316 316 317 317 318 319 319 318 314 310 306 303 299 296 293 289 281 273 269 267 266 266 265 264 261 257 253 249 245 243 242 242 242 243 244 243 243 242 241 240 239 236 231 225 222 220 220 219 212 206 203 203 205 206 207 207 206 205 205 205 206 208 210
313 315 317 319 322 324 327 328 329 330 330 328 327 326 324 323 322 321 321 321 320 319 318 318 317 318 319 320 320 320 319 315 311 306 303 300 298 296 291 282 274 269 267 265 265 264 263 261 259 255 250 246 243 241 241 241 241 242 243 242 242 241 240 239 236 232 226 222 219 219 218 214 207 203 202 203 204 206 207 208 208 207 207 207 208 210
314 316 319 322 324 326 327 328 329 330 330 329 328 327 326 325 324 324 324 324 323 322 321 320 319 320 321 322 322 321 319 315 311 306 303 300 298 296 292 284 276 270 266 264 264 264 263 262 260 257 253 247 243 241 240 239 239 240 241 241 241 240 239 238 236 232 226 222 219 218 218 215 209 204 203 203 202 203 206 208 209 209 209 209 209 211
316 318 321 324 325 326 327 328 329 330 330 330 329 328 328 328 328 328 328 328 326 324 323 321 321 321 322 322 321 320 319 315 310 306 303 300 297 295 293 286 278 271 266 263 262 263 263 263 262 259 255 250 245 241 239 238 238 238 239 239 239 238 237 236 234 231 226 222 219 218 217 215 210 206 204 203 201 200 203 207 209 211 211 210 211 211
318 320 323 324 325 326 326 327 328 329 330 330 330 329 330 330 331 332 331 330 328 326 324 322 321 321 321 321 320 320 318 315 311 307 303 300 298 296 293 287 279 272 266 262 261 262 263 263 263 261 258 253 247 242 239 238 237 237 237 237 237 237 236 235 233 229 225 221 218 217 217 215 212 208 205 204 201 199 200 204 208 211 212 212 212 212
318 321 322 323 324 325 326 327 328 329 330 330 330 330 331 332 333 333 332 331 329 326 324 322 321 320 320 320 320 319 319 316 312 308 304 301 299 297 294 288 280 273 268 263 260 260 262 263 263 261 258 255 250 245 241 238 237 236 236 236 236 235 234 233 231 228 224 220 217 217 216 215 213 210 207 206 202 199 198 202 206 210 212 213 213 214
318 320 321 322 323 325 326 327 329 330 330 331 331 331 332 333 333 333 332 331 328 326 323 322 321 320 319 319 319 320 319 317 313 308 304 301 299 298 295 289 283 276 270 265 260 258 260 261 261 260 258 254 250 246 242 239 238 236 236 235 235 234 233 231 229 227 223 219 217 216 216 216 215 213 210 207 203 199 198 201 205 209 211 213 214 215
317 319 320 322 323 325 327 328 330 330 330 330 330 330 331 332 332 331 331 330 328 326 324 323 321 320 319 319 320 320 320 319 315 309 305 302 301 299 296 292 287 281 274 268 261 257 257 259 260 259 256 253 250 247 243 240 238 237 236 235 234 234 232 231 228 226 223 220 218 218 218 217 216 215 214 210 204 199 197 200 204 208 211 213 214 215
317 319 321 322 324 326 328 329 330 330 329 328 328 329 330 330 331 331 331 330 329 327 326 325 323 322 320 320 320 321 322 321 317 311 307 304 302 300 298 295 291 285 279 273 265 259 255 255 257 257 255 253 250 247 244 241 239 238 237 235 234 233 232 231 228 226 224 222 221 220 220 219 218 218 217 213 207 200 198 200 204 208 211 213 214 215
318 320 322 324 326 327 329 329 329 328 327 327 326 327 328 329 330 330 331 331 330 329 328 327 326 324 322 321 321 322 323 323 318 312 307 305 303 302 300 297 293 288 283 277 271 264 254 250 251 254 254 252 250 246 243 241 238 237 236 235 234 232 231 230 229 227 225 223 223 224 223 221 220 220 219 217 211 203 199 201 204 208 211 213 214 215
318 321 323 325 327 328 329 329 328 327 326 325 326 326 328 329 330 331 332 332 333 332 331 330 329 327 325 323 322 322 323 322 318 311 307 305 303 302 301 298 295 289 284 278 274 268 260 250 247 250 252 252 249 246 243 240 238 236 235 235 233 231 230 229 229 228 228 226 226 227 226 223 222 221 221 220 216 209 203 202 203 207 209 212 214 215
318 321 323 325 327 328 328 328 327 326 325 325 326 327 328 329 331 332 333 334 335 335 334 333 331 329 327 325 323 323 323 321 317 311 307 305 304 303 302 299 295 289 283 278 273 269 264 257 250 248 250 250 248 245 242 238 236 234 233 234 233 231 229 228 228 228 229 230 230 230 228 226 224 223 223 222 221 216 210 206 204 205 207 210 212 214
318 321 323 325 326 327 327 327 326 326 326 326 327 328 329 330 332 333 334 336 336 337 336 335 333 331 329 327 325 324 323 321 317 312 309 307 305 304 303 300 295 289 282 277 272 267 264 259 254 250 248 248 246 244 240 237 234 232 231 231 231 231 229 227 226 227 228 231 232 232 230 228 227 226 224 224 224 221 216 212 209 206 206 207 209 212
318 321 324 325 326 327 327 326 326 326 326 327 328 329 330 331 332 334 335 336 337 337 337 337 335 333 330 328 326 325 323 321 317 313 310 308 306 305 303 301 297 289 282 275 270 265 262 258 254 252 249 248 246 244 240 235 232 229 227 227 228 228 228 226 224 224 226 228 231 232 231 231 229 228 227 226 225 222 218 216 214 212 209 208 208 210
317 321 324 325 326 326 326 326 326 326 327 327 328 329 330 331 332 333 334 336 337 337 338 337 336 334 331 329 326 324 323 321 318 315 311 309 307 305 304 302 297 290 282 274 268 262 259 255 252 250 249 249 247 245 241 235 230 227 225 224 224 225 225 225 223 222 222 225 228 230 231 231 231 230 228 227 225 222 217 216 216 217 215 213 211 210
317 321 323 325 325 325 325 326 326 326 327 328 328 329 330 331 332 333 334 335 336 337 337 337 337 335 333 329 326 324 322 321 319 316 312 309 307 305 304 302 297 289 282 275 268 261 257 253 249 247 247 247 247 246 243 237 231 226 223 222 222 222 223 222 221 220 219 221 224 227 229 230 231 230 229 227 225 221 216 214 215 217 218 217 215 213
316 320 323 324 324 325 325 326 326 327 327 328 329 329 330 331 331 332 333 334 335 336 336 337 337 336 335 331 328 325 322 320 318 316 313 310 307 305 303 300 295 288 280 273 267 261 256 253 249 246 245 245 246 245 244 239 234 228 223 221 221 221 221 221 219 217 217 218 220 223 225 228 229 229 229 227 225 221 216 213 212 214 216 217 216 215
315 319 322 323 323 324 325 325 326 327 327 328 329 329 330 331 332 332 333 334 334 335 336 337 338 338 337 334 331 327 324 321 318 316 313 310 307 304 302 300 294 286 276 269 265 261 257 253 249 245 243 242 243 244 243 241 236 230 224 221 219 220 221 220 219 216 215 215 216 218 221 224 226 227 228 227 225 222 218 213 210 210 211 213 214 214
314 318 320 322 322 323 324 325 326 327 328 328 329 330 331 332 332 333 333 334 334 335 336 337 338 338 338 336 334 331 326 322 318 316 313 311 308 304 301 299 294 285 273 265 260 258 256 252 248 244 242 241 241 241 242 242 238 232 225 221 219 219 219 220 219 217 215 214 214 215 218 220 222 224 225 225 224 222 219 215 211 208 207 207 209 211
313 316 319 320 321 322 324 325 326 327 328 329 330 331 333 333 333 333 334 334 334 335 336 337 337 338 338 337 336 333 329 323 319 315 313 311 308 304 301 298 294 285 273 262 257 255 254 251 248 244 242 240 240 240 241 241 238 233 227 222 219 218 217 218 218 217 216 214 214 214 215 217 219 221 222 223 223 222 220 218 215 212 208 206 206 208
312 315 317 319 320 322 323 324 325 327 328 330 332 334 334 334 334 334 334 334 335 335 335 336 336 337 337 337 336 334 331 326 320 316 313 310 308 304 300 297 293 286 274 262 254 251 249 248 247 244 241 240 239 239 239 239 238 235 231 226 221 217 216 217 218 218 216 215 214 214 214 215 216 218 219 220 221 221 220 219 217 215 212 210 208 207
310 313 315 318 319 321 322 324 325 326 328 331 333 335 335 335 335 335 335 335 335 335 335 335 336 336 337 337 336 335 333 329 324 318 314 310 307 304 301 297 292 286 275 263 254 248 244 245 245 243 242 241 240 239 238 238 238 237 233 227 222 218 216 216 217 217 217 216 215 214 214 215 215 216 217 218 219 219 219 219 218 217 215 213 212 210
308 312 314 316 318 320 322 323 324 326 328 331 333 335 336 336 336 336 336 335 335 335 335 334 335 335 336 336 336 336 335 332 328 322 316 311 308 305 301 296 291 285 277 267 258 250 242 242 243 244 244 243 241 239 238 237 238 238 235 229 224 220 217 215 215 215 216 216 215 215 215 215 215 216 216 217 217 218 218 218 218 218 217 216 215 214
307 310 312 315 317 319 321 322 324 325 328 330 333 335 336 336 336 336 336 336 335 335 335 334 334 335 335 335 335 335 335 334 330 325 318 313 308 305 302 297 292 285 277 269 260 252 246 243 241 243 246 246 244 241 239 238 237 238 237 234 229 224 221 217 216 215 215 215 215 215 216 216 216 216 216 216 217 217 217 217 217 217 217 217 217 216
305 308 311 313 315 317 320 321 323 325 327 330 332 334 336 336 336 336 336 336 336 335 335 334 334 334 334 334 334 335 335 334 332 327 321 314 309 305 302 298 292 286 279 272 263 252 245 243 242 243 246 247 246 243 241 239 237 237 237 236 232 227 222 218 216 215 215 214 214 215 215 216 216 215 215 216 216 216 217 217 217 217 217 217 218 217
303 306 309 311 314 316 318 321 322 324 326 328 331 333 335 335 336 336 336 336 336 335 334 334 333 333 333 333 334 334 334 334 332 329 324 317 310 305 301 297 293 287 280 274 267 258 250 243 241 243 246 246 244 242 240 239 237 236 236 235 233 229 224 220 217 215 214 214 214 214 214 214 215 215 215 215 215 215 216 216 216 217 217 217 217 217
301 304 307 309 312 315 317 320 322 323 325 327 329 331 333 334 335 335 336 336 335 335 334 333 332 332 332 332 333 333 334 333 332 330 326 321 314 307 301 297 293 288 282 276 269 262 254 248 245 245 247 247 244 239 237 237 236 235 235 234 233 231 228 224 220 217 215 214 213 213 213 213 213 214 214 214 214 214 215 215 216 216 217 217 217 217
299 302 305 308 310 314 316 319 321 322 324 326 328 329 331 332 334 334 335 335 335 334 333 333 331 331 330 331 332 333 333 333 332 330 327 323 318 311 304 299 294 290 285 279 273 265 257 251 248 249 251 251 247 241 237 235 235 234 234 233 232 231 229 226 222 219 217 215 213 213 212 212 213 213 212 213 213 213 214 214 214 215 216 217 217 217
297 300 303 306 309 312 315 318 320 321 323 324 326 327 329 331 332 333 334 334 334 334 333 332 331 330 329 330 331 332 333 332 331 330 327 324 319 313 307 301 296 291 286 281 275 269 262 255 251 250 252 252 249 244 239 235 233 233 232 232 231 230 228 226 223 220 218 216 214 213 213 213 213 212 212 212 212 212 212 212 213 213 214 215 216 217
295 298 301 304 308 311 314 316 318 320 322 323 324 326 327 329 330 331 332 332 333 333 332 332 330 329 328 328 329 331 332 332 331 329 327 324 319 315 309 302 296 290 285 280 276 272 268 263 257 251 249 251 250 247 241 237 234 232 231 230 230 229 228 226 224 222 219 217 215 214 213 212 212 211 212 212 211 211 211 211 211 212 213 214 215 215
Height
2898 2897 2896 2894 2892 2890 2888 2887 2885 2883 2880 2878 2876 2873 2871 2869 2867 2866 2864 2862 2861 2859 2856 2855 2852 2851 2849 2847 2846 2844 2843 2841 2840 2838 2837 2836 2836 2835 2835 2834 2834 2834 2835 2834 2834 2833 2832 2831 2830 2829 2828 2827 2826 2825 2824 2823 2822 2822 2822 2820 2819 2819 2819 2820 2820 2821 2821 2824 2827 2831 2835 2839 2843 2846 2849 2852 2857 2862 2867 2871 2874 2876 2880 2882 2884 2887
2896 2894 2893 2891 2890 2887 2885 2885 2883 2881 2877 2875 2873 2871 2869 2867 2865 2863 2862 2860 2859 2857 2855 2853 2851 2849 2847 2845 2844 2842 2841 2839 2838 2836 2835 2834 2833 2832 2832 2831 2831 2832 2832 2832 2831 2831 2830 2828 2827 2826 2826 2826 2825 2824 2823 2822 2822 2822 2821 2821 2819 2818 2818 2818 2818 2817 2819 2823 2827 2830 2832 2836 2839 2842 2845 2849 2853 2858 2862 2865 2867 2871 2874 2878 2881 2885
2893 2891 2890 2889 2888 2886 2883 2882 2880 2878 2876 2873 2871 2869 2866 2865 2863 2861 2859 2858 2856 2855 2853 2851 2849 2846 2845 2843 2842 2840 2839 2837 2836 2835 2833 2832 2831 2830 2829 2829 2829 2829 2829 2829 2829 2828 2827 2826 2825 2824 2823 2823 2823 2823 2822 2822 2821 2821 2821 2821 2820 2819 2818 2817 2816 2815 2817 2822 2826 2828 2831 2834 2836 2839 2842 2846 2851 2855 2858 2860 2863 2867 2871 2876 2880 2884
2891 2889 2888 2886 2885 2883 2882 2880 2878 2876 2873 2871 2868 2866 2865 2862 2860 2859 2857 2855 2854 2852 2850 2849 2846 2845 2843 2841 2840 2838 2837 2835 2834 2833 2831 2830 2829 2828 2827 2826 2826 2826 2826 2827 2826 2826 2825 2823 2822 2821 2821 2821 2821 2821 2821 2821 2820 2820 2820 2821 2820 2820 2819 2817 2816 2815 2816 2819 2823 2827 2831 2833 2835 2838 2841 2845 2849 2853 2856 2858 2862 2867 2871 2876 2879 2882
2890 2887 2886 2884 2882 2881 2879 2877 2876 2873 2871 2868 2866 2864 2862 2860 2858 2856 2854 2853 2851 2849 2847 2846 2844 2842 2841 2839 2837 2836 2835 2833 2832 2831 2830 2828 2827 2826 2825 2824 2824 2824 2824 2824 2824 2824 2822 2821 2820 2819 2818 2818 2819 2819 2819 2819 2819 2819 2819 2820 2820 2820 2819 2818 2816 2815 2816 2817 2821 2826 2830 2832 2835 2837 2840 2844 2847 2851 2854 2859 2863 2868 2871 2875 2878 2881
2888 2886 2884 2882 2880 2878 2876 2875 2873 2871 2868 2866 2864 2862 2860 2857 2855 2853 2851 2850 2848 2846 2845 2844 2842 2841 2839 2837 2835 2833 2832 2831 2829 2828 2827 2826 2825 2824 2823 2822 2822 2821 2821 2821 2822 2821 2820 2819 2817 2816 2816 2816 2816 2817 2817 2817 2817 2817 2818 2819 2819 2820 2819 2818 2816 2815 2816 2817 2820 2824 2828 2831 2833 2836 2839 2843 2846 2850 2854 2859 2864 2868 2871 2875 2878 2880
2885 2884 2883 2880 2878 2876 2874 2872 2870 2868 2866 2863 2861 2859 2857 2855 2853 2851 2849 2847 2846 2844 2843 2841 2840 2839 2837 2835 2833 2831 2830 2828 2827 2826 2825 2824 2823 2822 2821 2821 2820 2819 2819 2819 2819 2819 2818 2816 2815 2814 2814 2814 2814 2815 2815 2816 2816 2816 2816 2817 2818 2818 2818 2817 2816 2815 2816 2818 2821 2824 2827 2829 2831 2834 2838 2842 2846 2850 2854 2859 2863 2866 2870 2874 2876 2879
2883 2881 2881 2878 2875 2873 2871 2869 2868 2866 2863 2861 2858 2856 2854 2852 2851 2849 2847 2845 2844 2842 2841 2839 2838 2836 2835 2833 2831 2829 2827 2826 2824 2823 2822 2821 2821 2820 2819 2819 2818 2817 2817 2817 2817 2817 2816 2814 2812 2812 2812 2812 2812 2813 2813 2814 2815 2815 2815 2815 2816 2816 2816 2816 2816 2816 2816 2818 2821 2823 2826 2828 2830 2832 2836 2840 2845 2849 2853 2857 2861 2864 2868 2872 2875 2878
2881 2879 2877 2876 2873 2870 2868 2866 2865 2863 2861 2858 2856 2854 2851 2850 2848 2847 2845 2843 2842 2840 2838 2836 2835 2834 2833 2831 2829 2827 2825 2823 2822 2821 2820 2819 2818 2817 2817 2816 2816 2816 2815 2815 2815 2815 2814 2812 2810 2809 2809 2810 2810 2811 2812 2812 2813 2813 2813 2814 2814 2815 2816 2816 2816 2817 2817 2819 2820 2822 2824 2826 2827 2829 2833 2838 2843 2848 2851 2855 2858 2862 2867 2871 2874 2876
2880 2877 2874 2872 2871 2869 2866 2863 2861 2860 2859 2856 2855 2852 2851 2848 2846 2845 2843 2841 2840 2838 2837 2835 2832 2831 2830 2829 2827 2825 2823 2821 2820 2818 2817 2816 2816 2815 2814 2814 2813 2813 2813 2813 2813 2813 2812 2810 2808 2806 2806 2807 2808 2809 2810 2811 2811 2812 2812 2813 2813 2814 2815 2815 2816 2816 2817 2817 2818 2820 2823 2824 2825 2827 2832 2837 2841 2846 2849 2852 2856 2861 2865 2869 2872 2875
2877 2874 2872 2869 2867 2866 2864 2861 2859 2858 2856 2855 2853 2852 2850 2849 2846 2843 2841 2839 2837 2836 2835 2832 2831 2829 2827 2826 2825 2823 2821 2819 2817 2816 2815 2814 2813 2812 2811 2811 2811 2810 2810 2810 2810 2810 2810 2808 2806 2804 2804 2804 2805 2806 2808 2809 2810 2811 2811 2812 2812 2813 2814 2815 2816 2816 2816 2816 2816 2819 2822 2823 2825 2828 2833 2837 2841 2844 2847 2851 2854 2858 2863 2866 2870 2873
2874 2872 2870 2868 2866 2864 2862 2861 2859 2857 2856 2855 2852 2851 2849 2848 2846 2843 2840 2837 2835 2833 2832 2830 2828 2826 2825 2823 2821 2820 2819 2817 2815 2814 2813 2812 2811 2810 2809 2808 2808 2808 2807 2807 2808 2808 2808 2806 2804 2802 2801 2802 2803 2804 2806 2807 2808 2810 2810 2811 2811 2812 2813 2814 2815 2816 2817 2817 2816 2818 2821 2822 2824 2828 2832 2836 2839 2842 2846 2849 2853 2856 2860 2864 2867 2870
2872 2871 2869 2866 2865 2863 2862 2861 2859 2858 2856 2854 2852 2849 2847 2845 2843 2841 2838 2836 2833 2831 2829 2827 2825 2824 2823 2821 2819 2818 2816 2814 2813 2811 2811 2810 2809 2808 2807 2806 2806 2805 2805 2805 2805 2805 2805 2805 2803 2801 2800 2800 2801 2802 2804 2805 2807 2808 2809 2810 2811 2811 2812 2813 2815 2816 2818 2818 2818 2819 2821 2822 2824 2826 2830 2834 2837 2841 2846 2849 2852 2855 2858 2862 2865 2868
2872 2871 2869 2868 2866 2865 2863 2861 2859 2857 2855 2853 2851 2848 2845 2843 2841 2839 2836 2834 2831 2830 2827 2825 2822 2821 2820 2819 2817 2816 2814 2812 2811 2809 2808 2808 2807 2806 2805 2804 2803 2803 2802 2802 2802 2803 2803 2802 2801 2800 2798 2798 2798 2800 2801 2803 2805 2807 2808 2809 2810 2810 2811 2812 2814 2815 2817 2818 2818 2819 2819 2821 2823 2825 2829 2832 2836 2841 2845 2848 2851 2854 2857 2860 2863 2866
2873 2872 2870 2868 2866 2865 2863 2861 2858 2855 2853 2851 2848 2846 2843 2841 2839 2836 2834 2831 2829 2827 2825 2823 2820 2819 2817 2816 2815 2814 2811 2810 2808 2807 2806 2806 2805 2804 2803 2802 2801 2801 2800 2800 2800 2800 2801 2800 2800 2799 2797 2796 2797 2798 2799 2801 2803 2805 2807 2808 2809 2809 2810 2811 2813 2814 2816 2817 2818 2818 2819 2821 2823 2825 2829 2832 2836 2840 2843 2847 2850 2853 2856 2859 2862 2865
2873 2871 2870 2867 2865 2863 2861 2859 2856 2853 2851 2849 2846 2844 2841 2839 2836 2835 2832 2830 2827 2825 2823 2821 2818 2816 2815 2815 2814 2812 2810 2808 2806 2805 2804 2803 2803 2802 2801 2800 2799 2798 2798 2797 2797 2798 2798 2798 2798 2797 2796 2796 2795 2796 2797 2799 2801 2803 2805 2806 2807 2808 2809 2810 2811 2813 2815 2817 2819 2819 2820 2822 2824 2825 2828 2832 2836 2839 2842 2845 2848 2851 2854 2857 2861 2863
2871 2870 2868 2865 2863 2861 2859 2857 2855 2852 2850 2847 2845 2842 2840 2837 2835 2833 2831 2828 2826 2824 2821 2819 2816 2814 2812 2811 2811 2811 2809 2807 2805 2803 2802 2801 2801 2801 2800 2798 2797 2796 2796 2795 2795 2796 2796 2796 2796 2796 2796 2795 2794 2795 2796 2797 2799 2801 2803 2805 2806 2807 2808 2809 2811 2812 2815 2817 2819 2820 2821 2822 2823 2825 2826 2831 2835 2838 2841 2843 2846 2849 2852 2856 2858 2861
2870 2868 2866 2864 2862 2860 2858 2855 2853 2851 2848 2845 2843 2840 2838 2836 2834 2831 2829 2827 2825 2822 2820 2818 2816 2813 2811 2809 2809 2809 2808 2806 2803 2801 2800 2799 2799 2798 2798 2796 2795 2794 2793 2793 2793 2793 2794 2794 2794 2794 2794 2794 2794 2793 2794 2795 2797 2799 2801 2803 2805 2806 2807 2809 2810 2812 2814 2817 2819 2821 2822 2823 2823 2824 2826 2829 2833 2836 2839 2841 2844 2847 2851 2854 2856 2859
2868 2867 2865 2862 2860 2858 2856 2854 2851 2849 2846 2844 2841 2839 2836 2834 2832 2830 2828 2826 2823 2821 2818 2816 2814 2812 2810 2808 2807 2807 2806 2804 2801 2799 2798 2797 2796 2796 2796 2795 2793 2792 2791 2791 2791 2791 2791 2792 2792 2792 2793 2793 2792 2792 2792 2793 2795 2796 2799 2801 2803 2805 2806 2808 2809 2811 2813 2816 2818 2820 2821 2823 2824 2825 2826 2829 2831 2834 2837 2840 2843 2846 2849 2852 2855 2857
2866 2865 2864 2861 2859 2856 2854 2852 2850 2848 2845 2842 2840 2837 2835 2832 2830 2828 2826 2824 2821 2819 2817 2815 2812 2810 2809 2807 2806 2805 2804 2802 2800 2798 2796 2795 2794 2794 2794 2793 2791 2790 2790 2790 2790 2790 2790 2790 2790 2791 2791 2791 2791 2791 2791 2791 2792 2794 2796 2799 2801 2803 2805 2806 2808 2810 2812 2815 2817 2819 2820 2822 2824 2826 2827 2829 2831 2833 2836 2838 2841 2844 2847 2851 2853 2855
2865 2863 2862 2860 2857 2855 2852 2850 2848 2846 2844 2841 2838 2836 2833 2831 2828 2826 2824 2822 2820 2818 2816 2813 2811 2809 2807 2805 2804 2803 2802 2800 2798 2796 2794 2793 2792 2792 2792 2791 2790 2789 2788 2788 2788 2788 2788 2788 2788 2789 2789 2790 2790 2790 2790 2790 2791 2792 2794 2796 2799 2801 2803 2805 2806 2808 2811 2813 2816 2817 2819 2821 2823 2825 2827 2829 2831 2832 2835 2837 2840 2843 2846 2849 2851 2854
2863 2861 2860 2859 2856 2853 2851 2848 2846 2845 2842 2840 2837 2834 2831 2829 2827 2825 2823 2821 2818 2816 2814 2811 2809 2807 2806 2804 2802 2801 2800 2798 2796 2794 2792 2791 2790 2791 2791 2789 2788 2787 2786 2786 2786 2786 2786 2786 2787 2787 2788 2788 2788 2788 2788 2789 2789 2790 2792 2794 2796 2799 2801 2803 2805 2806 2809 2811 2814 2816 2818 2819 2821 2823 2826 2828 2830 2831 2834 2836 2839 2841 2844 2847 2850 2852
2862 2861 2859 2856 2854 2851 2849 2847 2845 2843 2841 2839 2836 2833 2831 2828 2826 2823 2821 2819 2816 2814 2812 2809 2807 2805 2804 2802 2800 2799 2798 2797 2795 2793 2791 2789 2788 2789 2789 2788 2786 2786 2785 2785 2785 2785 2785 2785 2785 2786 2786 2786 2786 2787 2787 2787 2788 2789 2790 2792 2794 2796 2798 2800 2802 2804 2806 2809 2811 2814 2816 2818 2820 2822 2824 2826 2828 2830 2832 2835 2837 2840 2842 2845 2847 2850
2861 2859 2856 2854 2852 2850 2847 2845 2843 2841 2839 2837 2835 2832 2830 2827 2825 2822 2819 2817 2815 2812 2810 2807 2805 2803 2801 2800 2799 2797 2796 2795 2793 2791 2790 2788 2787 2787 2787 2786 2785 2784 2784 2784 2783 2783 2783 2783 2784 2784 2785 2785 2785 2786 2786 2786 2787 2788 2789 2790 2792 2794 2796 2797 2799 2801 2803 2806 2809 2811 2814 2816 2818 2820 2823 2825 2826 2829 2831 2833 2836 2838 2841 2843 2846 2848
2859 2857 2854 2852 2850 2848 2846 2844 2842 2840 2838 2836 2833 2831 2828 2825 2822 2820 2817 2815 2813 2810 2807 2805 2803 2801 2800 2798 2797 2796 2795 2794 2792 2790 2788 2786 2785 2785 2785 2784 2783 2782 2782 2782 2782 2782 2781 2782 2782 2783 2783 2784 2784 2784 2785 2785 2786 2787 2788 2789 2791 2792 2794 2796 2797 2799 2801 2803 2806 2809 2811 2814 2816 2819 2821 2823 2825 2827 2829 2832 2834 2836 2839 2841 2844 2846
2857 2855 2853 2851 2849 2847 2845 2843 2841 2839 2836 2834 2831 2829 2826 2823 2820 2817 2815 2813 2811 2808 2806 2803 2801 2799 2798 2797 2796 2794 2793 2792 2791 2789 2787 2785 2784 2783 2784 2783 2782 2781 2781 2781 2781 2781 2780 2781 2781 2781 2782 2782 2783 2783 2784 2784 2785 2786 2787 2789 2790 2791 2792 2794 2796 2797 2799 2802 2804 2807 2810 2813 2816 2817 2820 2821 2823 2825 2827 2830 2832 2835 2837 2840 2842 2845
2856 2853 2851 2849 2847 2846 2843 2841 2839 2837 2835 2832 2830 2827 2824 2821 2818 2816 2814 2812 2810 2807 2805 2802 2800 2798 2797 2796 2794 2793 2792 2791 2789 2787 2786 2784 2782 2782 2782 2781 2781 2780 2779 2780 2780 2780 2780 2780 2780 2780 2781 2781 2781 2782 2782 2783 2784 2785 2786 2788 2789 2790 2791 2793 2795 2796 2799 2801 2803 2806 2809 2811 2814 2816 2818 2820 2822 2823 2826 2828 2831 2834 2836 2838 2841 2843
2854 2852 2850 2848 2846 2844 2842 2840 2837 2835 2833 2831 2828 2826 2823 2820 2817 2815 2813 2811 2809 2806 2804 2801 2799 2797 2795 2794 2793 2791 2791 2789 2787 2786 2784 2782 2781 2781 2781 2780 2779 2779 2778 2778 2779 2779 2779 2779 2779 2779 2779 2780 2780 2781 2781 2781 2782 2783 2784 2786 2788 2789 2791 2792 2794 2796 2798 2800 2802 2805 2807 2810 2812 2814 2816 2818 2820 2822 2824 2827 2830 2832 2835 2837 2840 2842
2853 2851 2849 2847 2845 2842 2840 2838 2836 2833 2831 2829 2826 2824 2822 2819 2817 2815 2812 2810 2808 2806 2803 2801 2798 2796 2794 2792 2791 2790 2789 2788 2786 2784 2783 2781 2781 2780 2779 2779 2778 2777 2777 2777 2777 2778 2778 2778 2778 2777 2778 2778 2779 2779 2780 2780 2780 2781 2782 2784 2786 2788 2790 2791 2793 2795 2797 2799 2801 2803 2806 2808 2810 2812 2814 2816 2818 2820 2822 2825 2828 2831 2833 2836 2839 2841
2851 2850 2847 2845 2843 2841 2838 2836 2834 2832 2830 2828 2826 2824 2821 2819 2817 2814 2812 2810 2807 2805 2802 2800 2797 2795 2793 2791 2789 2788 2788 2786 2785 2783 2781 2780 2779 2779 2778 2777 2777 2776 2776 2775 2776 2776 2777 2777 2777 2776 2777 2777 2778 2778 2779 2779 2779 2780 2781 2782 2784 2786 2788 2790 2792 2794 2796 2798 2800 2802 2804 2806 2808 2810 2812 2814 2816 2818 2821 2824 2826 2829 2832 2834 2837 2839
2849 2847 2845 2843 2841 2839 2837 2835 2833 2831 2829 2827 2825 2823 2821 2819 2816 2814 2811 2809 2806 2804 2801 2799 2796 2794 2792 2790 2788 2786 2786 2785 2784 2782 2780 2779 2778 2777 2777 2776 2776 2776 2775 2775 2774 2774 2775 2776 2776 2776 2776 2776 2776 2777 2777 2778 2778 2778 2779 2780 2782 2784 2786 2788 2790 2792 2795 2797 2799 2801 2802 2805 2807 2809 2810 2812 2814 2816 2819 2822 2825 2827 2830 2832 2835 2837
2847 2845 2843 2841 2840 2837 2836 2834 2832 2830 2828 2826 2825 2822 2820 2818 2816 2813 2811 2808 2805 2803 2800 2797 2795 2793 2791 2789 2787 2786 2784 2784 2783 2781 2779 2778 2777 2776 2776 2776 2775 2775 2774 2774 2773 2773 2773 2774 2775 2775 2775 2775 2775 2776 2776 2777 2777 2777 2778 2779 2780 2782 2784 2786 2788 2790 2792 2795 2797 2799 2801 2803 2805 2807 2809 2811 2813 2815 2817 2820 2823 2826 2828 2831 2833 2836
2846 2844 2842 2840 2838 2836 2834 2832 2831 2829 2827 2825 2823 2821 2819 2817 2814 2812 2809 2807 2804 2801 2799 2796 2794 2791 2790 2788 2786 2785 2783 2782 2781 2780 2778 2777 2776 2776 2775 2775 2774 2774 2773 2773 2772 2772 2772 2772 2773 2773 2773 2774 2774 2775 2775 2776 2776 2777 2777 2777 2778 2780 2781 2784 2786 2788 2791 2793 2795 2797 2800 2802 2804 2806 2808 2810 2811 2813 2816 2818 2821 2824 2827 2829 2831 2833
2844 2842 2840 2838 2836 2835 2833 2831 2829 2827 2826 2823 2821 2819 2817 2815 2813 2810 2808 2805 2803 2800 2798 2795 2793 2790 2788 2786 2785 2784 2782 2781 2780 2779 2777 2776 2775 2775 2774 2774 2773 2772 2772 2771 2771 2771 2771 2771 2771 2772 2772 2772 2773 2773 2774 2774 2775 2776 2776 2776 2777 2778 2780 2782 2784 2786 2788 2791 2793 2796 2798 2800 2802 2804 2806 2808 2810 2812 2814 2816 2819 2822 2825 2827 2830 2831
2842 2840 2838 2837 2835 2833 2831 2830 2828 2826 2824 2822 2820 2817 2816 2813 2811 2809 2806 2804 2802 2799 2797 2794 2792 2790 2787 2785 2783 2782 2781 2780 2779 2778 2776 2775 2774 2773 2773 2773 2772 2771 2771 2771 2770 2770 2770 2770 2770 2770 2771 2771 2771 2772 2772 2773 2774 2774 2775 2775 2776 2776 2778 2780 2781 2784 2786 2788 2791 2794 2796 2798 2801 2803 2805 2807 2809 2811 2813 2815 2817 2819 2822 2825 2828 2830
2840 2839 2837 2835 2833 2831 2830 2828 2826 2825 2822 2821 2818 2816 2814 2812 2810 2807 2805 2803 2801 2799 2796 2794 2792 2789 2787 2784 2782 2781 2780 2779 2778 2777 2776 2774 2773 2772 2772 2771 2771 2771 2770 2769 2769 2769 2769 2769 2769 2769 2769 2769 2770 2771 2771 2771 2772 2773 2773 2774 2775 2775 2776 2778 2780 2782 2784 2786 2789 2791 2794 2796 2799 2801 2803 2805 2807 2810 2812 2813 2815 2817 2820 2823 2826 2829
2839 2837 2835 2834 2832 2830 2828 2827 2825 2823 2821 2819 2817 2815 2813 2811 2809 2806 2804 2802 2800 2798 2796 2794 2791 2789 2787 2784 2782 2780 2778 2777 2776 2776 2775 2773 2772 2771 2771 2771 2770 2770 2769 2768 2768 2768 2768 2768 2768 2768 2768 2768 2769 2769 2769 2770 2771 2771 2772 2772 2773 2774 2775 2776 2778 2780 2782 2784 2786 2789 2791 2794 2796 2798 2801 2803 2806 2808 2811 2812 2814 2816 2819 2821 2824 2827
2837 2835 2834 2832 2831 2829 2827 2825 2823 2821 2820 2817 2816 2813 2811 2810 2807 2805 2803 2801 2799 2797 2795 2793 2791 2789 2786 2784 2781 2779 2777 2776 2775 2774 2773 2772 2771 2771 2770 2769 2769 2769 2768 2767 2767 2767 2767 2767 2767 2767 2767 2767 2767 2768 2768 2768 2769 2770 2770 2771 2771 2772 2773 2775 2776 2779 2781 2782 2785 2787 2789 2791 2794 2796 2799 2801 2804 2807 2809 2812 2814 2816 2818 2821 2823 2825
2835 2834 2832 2831 2829 2827 2826 2824 2822 2820 2818 2816 2814 2812 2810 2808 2806 2804 2802 2800 2798 2796 2794 2791 2789 2787 2785 2783 2781 2779 2776 2775 2774 2773 2772 2771 2771 2770 2769 2768 2768 2767 2767 2766 2766 2766 2766 2766 2766 2766 2766 2766 2766 2766 2767 2767 2768 2768 2769 2770 2771 2771 2772 2773 2775 2776 2779 2781 2783 2785 2787 2789 2791 2794 2796 2799 2802 2805 2808 2810 2812 2815 2817 2820 2821 2824
2833 2832 2831 2829 2828 2826 2824 2822 2821 2819 2817 2815 2813 2811 2809 2806 2805 2803 2801 2799 2796 2794 2792 2790 2788 2786 2784 2782 2780 2778 2776 2774 2773 2771 2771 2770 2770 2769 2768 2767 2767 2766 2766 2766 2765 2765 2765 2765 2765 2765 2765 2765 2765 2765 2766 2766 2766 2767 2768 2769 2769 2770 2771 2772 2773 2775 2777 2779 2781 2783 2785 2787 2790 2792 2794 2797 2800 2802 2805 2807 2809 2812 2815 2817 2820 2822
2832 2830 2829 2828 2826 2825 2823 2821 2820 2818 2816 2814 2811 2809 2807 2805 2803 2801 2799 2797 2796 2793 2791 2789 2787 2785 2783 2781 2779 2777 2776 2774 2772 2771 2770 2769 2768 2768 2767 2766 2766 2765 2765 2765 2764 2764 2764 2764 2764 2764 2764 2764 2764 2764 2765 2765 2765 2766 2766 2767 2768 2769 2769 2771 2772 2773 2775 2777 2779 2781 2783 2785 2787 2790 2792 2794 2796 2799 2801 2803 2806 2809 2811 2814 2816 2820
2830 2829 2827 2826 2825 2823 2821 2820 2818 2816 2814 2812 2810 2807 2805 2803 2801 2800 2798 2796 2794 2792 2790 2788 2786 2784 2782 2781 2779 2777 2775 2773 2771 2770 2768 2768 2767 2766 2766 2766 2765 2765 2764 2764 2763 2763 2763 2763 2763 2763 2763 2763 2763 2763 2764 2764 2764 2765 2765 2766 2767 2768 2769 2770 2771 2772 2773 2775 2777 2779 2781 2784 2786 2788 2790 2791 2794 2796 2799 2801 2804 2807 2809 2811 2814 2816
2828 2827 2826 2824 2823 2821 2820 2818 2817 2815 2813 2811 2808 2806 2804 2802 2800 2798 2796 2795 2793 2791 2789 2787 2785 2783 2781 2779 2777 2776 2774 2772 2771 2769 2767 2766 2766 2765 2765 2765 2764 2764 2763 2763 2762 2762 2762 2762 2762 2762 2762 2762 2762 2762 2763 2763 2763 2764 2764 2765 2766 2767 2768 2769 2770 2771 2772 2774 2776 2778 2780 2782 2784 2786 2787 2789 2791 2794 2797 2800 2803 2806 2808 2811 2813 2815
2826 2825 2824 2823 2821 2820 2818 2816 2815 2813 2811 2809 2807 2805 2803 2801 2799 2797 2795 2794 2792 2790 2788 2786 2784 2782 2780 2778 2776 2775 2773 2771 2770 2768 2767 2766 2765 2764 2764 2763 2763 2763 2762 2762 2762 2761 2761 2761 2761 2761 2761 2761 2761 2762 2762 2763 2763 2763 2764 2764 2765 2766 2766 2767 2768 2769 2771 2772 2774 2776 2778 2780 2781 2784 2786 2788 2790 2793 2796 2798 2801 2803 2806 2809 2811 2814
2824 2823 2822 2821 2820 2818 2816 2815 2813 2811 2809 2807 2805 2803 2801 2800 2798 2796 2794 2792 2791 2789 2787 2785 2783 2781 2779 2777 2775 2774 2772 2771 2769 2768 2766 2765 2764 2763 2762 2762 2762 2761 2761 2761 2761 2761 2761 2761 2761 2761 2760 2761 2761 2761 2762 2762 2762 2762 2763 2763 2764 2765 2766 2767 2768 2769 2770 2771 2773 2775 2776 2778 2780 2782 2785 2787 2789 2791 2793 2795 2797 2800 2803 2806 2809 2812
2822 2821 2820 2819 2818 2816 2815 2813 2811 2810 2808 2806 2804 2802 2800 2798 2796 2795 2793 2791 2790 2788 2786 2785 2783 2781 2778 2776 2774 2773 2771 2770 2768 2767 2766 2764 2763 2762 2761 2761 2760 2760 2760 2760 2760 2760 2760 2760 2760 2760 2760 2760 2760 2761 2761 2761 2761 2762 2762 2762 2763 2764 2765 2766 2767 2768 2769 2771 2772 2773 2775 2776 2779 2781 2783 2785 2786 2788 2790 2792 2795 2798 2801 2804 2807 2810
2820 2819 2818 2817 2816 2815 2813 2811 2810 2808 2806 2804 2802 2801 2799 2797 2796 2794 2792 2790 2789 2787 2785 2784 2782 2780 2778 2776 2774 2772 2770 2769 2767 2766 2765 2763 2762 2761 2760 2759 2759 2759 2758 2758 2758 2759 2759 2759 2759 2759 2759 2759 2759 2760 2760 2761 2761 2761 2761 2762 2762 2763 2764 2765 2766 2766 2768 2770 2771 2772 2774 2776 2778 2779 2781 2782 2784 2786 2788 2791 2793 2796 2799 2802 2805 2808
2818 2817 2816 2815 2814 2813 2811 2810 2808 2806 2805 2803 2801 2800 2798 2796 2794 2792 2791 2789 2787 2786 2784 2783 2781 2779 2777 2776 2773 2771 2769 2767 2766 2765 2764 2762 2761 2760 2759 2758 2758 2757 2757 2757 2757 2757 2757 2757 2757 2758 2758 2758 2758 2758 2759 2759 2760 2760 2760 2761 2761 2762 2763 2764 2765 2766 2767 2768 2770 2771 2773 2775 2776 2777 2779 2781 2783 2785 2787 2790 2792 2795 2797 2800 2803 2806
2816 2815 2814 2813 2812 2811 2809 2808 2806 2805 2803 2801 2800 2798 2796 2795 2793 2791 2790 2788 2786 2785 2783 2781 2780 2778 2776 2775 2773 2771 2769 2767 2765 2764 2763 2761 2760 2759 2758 2757 2756 2756 2756 2755 2755 2756 2756 2756 2756 2756 2757 2757 2757 2757 2758 2758 2758 2759 2759 2760 2760 2761 2762 2763 2764 2765 2766 2767 2769 2770 2772 2773 2774 2776 2778 2780 2782 2784 2786 2788 2791 2793 2796 2798 2801 2804
2814 2813 2812 2811 2810 2809 2808 2806 2805 2803 2801 2800 2798 2796 2795 2794 2792 2790 2788 2787 2785 2784 2782 2780 2779 2777 2776 2774 2772 2770 2768 2766 2765 2763 2762 2761 2759 2758 2757 2756 2756 2755 2754 2754 2754 2754 2754 2754 2755 2756 2756 2756 2756 2756 2756 2757 2757 2757 2758 2758 2759 2760 2761 2762 2763 2764 2765 2766 2767 2769 2770 2771 2773 2775 2777 2779 2781 2782 2784 2786 2788 2791 2793 2796 2799 2802
2812 2811 2811 2810 2808 2807 2806 2804 2803 2801 2800 2798 2796 2795 2793 2792 2791 2789 2787 2786 2784 2782 2781 2779 2778 2776 2774 2773 2771 2770 2768 2766 2764 2762 2761 2760 2758 2757 2756 2755 2755 2754 2753 2753 2753 2753 2753 2753 2753 2754 2754 2755 2755 2755 2755 2755 2756 2756 2757 2757 2758 2759 2760 2761 2761 2762 2763 2765 2766 2767 2769 2771 2773 2775 2776 2778 2779 2781 2783 2785 2787 2789 2791 2794 2797 2800